Regional Weather Roundup
Issued by NWS

Home | Current Version | Previous Version | Text Only | Print | Product List | Glossary Off
Versions: 1 2 3 4 5 6 7 8 9 10 11 12 13 14 15 16 17 18 19 20 21 22 23 24 25 26 27 28 29 30 31 32 33 34 35 36 37 38 39 40 41 42 43 44 45 46 47 48 49 50

000
ASUS43 KFSD 252310
RWRSD

WEATHER ROUNDUP FOR SOUTH DAKOTA
NATIONAL WEATHER SERVICE SIOUX FALLS SD
500 PM CST THU DEC 25 2014

NOTE: "FAIR" INDICATES FEW OR NO CLOUDS BELOW 12,000 FEET WITH NO
SIGNIFICANT WEATHER AND/OR OBSTRUCTIONS TO VISIBILITY.


SDZ001>005-009-010-012>017-260000-
NORTHWEST AND NORTH CENTRAL SOUTH DAKOTA

CITY           SKY/WX    TMP DP  RH WIND       PRES   REMARKS
BUFFALO          N/A     22  18  85 NW21      29.81R WCI   6
FAITH            N/A     27  21  78 N22       29.84R WCI  13
MOBRIDGE       CLOUDY    28  22  78 N17       29.83R WCI  16
$$

SDZ012>016-024>037-041>051-057-063-072>074-260000-
SOUTHWEST AND SOUTH CENTRAL SOUTH DAKOTA

CITY           SKY/WX    TMP DP  RH WIND       PRES   REMARKS
RAPID CTY ARPT LGT SNOW  25  21  85 N23       29.82R BLWGSNOWWCI  10
PIERRE         CLOUDY    28  24  85 N21       29.82R WCI  15
CUSTER         LGT SNOW  20  14  77 N9        29.69R WCI   9
ELLSWORTH AFB  FLURRIES  25  22  88 N17G23    29.83  WCI  12
PHILIP         FLURRIES  28  24  85 N10       29.84R WCI  19
PINE RIDGE     LGT SNOW  26  22  84 N15G22    29.77R VSB 1   WCI  14
SPEARFISH      MOCLDY    23  19  86 N7        29.86R WCI  15
WINNER         LGT SNOW  29  26  89 N22       29.76R VSB 3/4 WCI  15
$$

SDZ004>011-016>023-039-040-260000-
NORTHEAST SOUTH DAKOTA

CITY           SKY/WX    TMP DP  RH WIND       PRES   REMARKS
ABERDEEN       MOCLDY    28  22  78 N18       29.85R WCI  15
WATERTOWN      CLOUDY    26  23  88 N17       29.77R FOG     WCI  13
SISSETON         N/A     27  25  92 N12       29.83R WCI  17
$$

SDZ017-020-022-023-036>040-048>070-260000-
SOUTHEAST SOUTH DAKOTA

CITY           SKY/WX    TMP DP  RH WIND       PRES   REMARKS
SIOUX FALLS    CLOUDY    33  29  85 E13       29.72R WCI  24
HURON          CLOUDY    27  23  85 N20G26    29.78R WCI  13
CHAMBERLAIN    LGT SNOW  28  26  92 N15G22    29.78R WCI  16
MITCHELL       CLOUDY    31  28  89 N20       29.76R WCI  19
YANKTON        CLOUDY    36  28  75 NE13      29.71R
$$

ABBREVIATIONS USED IN REMARKS
   TC - TEMPERATURE IN CELSIUS
  WCI - WIND CHILL INDEX
   HX - HEAT INDEX
  VSB - VISIBILITY



USA.gov is the U.S. government's official web portal to all federal, state and local government web resources and services.